K7OLI-13 Weather Reports


Display with metric or nautical units.
time (UTC)temp
F
wind
direction
speed
MPH
gust
MPH
rain 1hr
in
rain 24hr
in
rain mn
in
humidity
%
barometer
mb
20260507090034 54 234 5.0 5.0 0.00 0.00 0.00 87 1018.2
20260507085021 54 240 4.0 5.0 0.00 0.00 0.00 87 1018.2
20260507084022 54 222 3.0 4.0 0.00 0.00 0.00 87 1018.2
20260507083036 54 244 4.0 5.0 0.00 0.00 0.00 87 1018.2
20260507082026 54 222 3.0 4.0 0.00 0.00 0.00 87 1018.2
20260507081053 54 220 4.0 5.0 0.00 0.00 0.00 87 1018.1
20260507080026 54 225 3.0 5.0 0.00 0.00 0.00 87 1018.1
20260507075053 54 216 4.0 5.0 0.00 0.00 0.00 87 1018.1
20260507074023 54 218 4.0 5.0 0.00 0.00 0.00 87 1018.1
20260507073107 54 234 4.0 4.0 0.00 0.00 0.00 87 1018.1
20260507072036 54 220 5.0 6.0 0.00 0.00 0.00 87 1018.1
20260507071026 54 193 4.0 6.0 0.00 0.00 0.00 87 1018.1
20260507070033 54 193 4.0 5.0 0.00 0.00 0.00 87 1018.1
20260507065022 54 212 4.0 5.0 0.00 0.00 0.00 87 1018.1
20260507064024 54 225 4.0 6.0 0.00 0.00 0.00 87 1018.1
20260507063020 54 195 4.0 6.0 0.00 0.00 0.00 87 1018.1
20260507062028 53 200 5.0 6.0 0.00 0.00 0.00 87 1018.1
20260507061036 53 206 5.0 6.0 0.00 0.00 0.00 87 1018.1
20260507060026 53 222 4.0 6.0 0.00 0.00 0.00 87 1018.1
20260507055035 53 222 6.0 8.0 0.00 0.00 0.00 87 1018.1
20260507054025 53 212 4.0 7.0 0.00 0.00 0.00 86 1018.1
20260507053030 54 231 6.0 9.0 0.00 0.00 0.00 86 1018.1
20260507052019 54 232 4.0 7.0 0.00 0.00 0.00 86 1018.1
20260507051048 54 234 4.0 6.0 0.00 0.00 0.00 86 1018.1
20260507050041 54 239 5.0 7.0 0.00 0.00 0.00 86 1018.1
20260507045025 54 231 6.0 8.0 0.00 0.00 0.00 86 1018.1
20260507044026 54 203 6.0 7.0 0.00 0.00 0.00 86 1018.1
20260507043022 54 215 8.0 11.0 0.00 0.00 0.00 85 1018.1
20260507042030 54 219 7.0 9.0 0.00 0.00 0.00 85 1017.1
20260507041019 54 237 8.0 10.0 0.00 0.00 0.00 85 1017.1
20260507040027 55 226 7.0 9.0 0.00 0.00 0.00 84 1017.1
20260507035037 55 226 10.0 12.0 0.00 0.00 0.00 84 1017.1
20260507034027 55 230 12.0 15.0 0.00 0.00 0.00 83 1017.1
20260507033033 56 220 9.0 13.0 0.00 0.00 0.00 82 1017.1
20260507032042 57 207 8.0 11.0 0.00 0.00 0.00 81 1017.1
20260507031030 58 227 8.0 10.0 0.00 0.00 0.00 79 1017.1
20260507030019 59 205 8.0 11.0 0.00 0.00 0.00 78 1017.1
20260507025027 59 208 7.0 12.0 0.00 0.00 0.00 77 1017.1
20260507024109 60 220 9.0 14.0 0.00 0.00 0.00 76 1017.1
20260507023044 61 207 8.0 11.0 0.00 0.00 0.00 75 1017.1
20260507022050 62 229 11.0 15.0 0.00 0.00 0.00 73 1017.1
20260507021021 62 208 8.0 12.0 0.00 0.00 0.00 73 1017.1
20260507020029 62 211 11.0 15.0 0.00 0.00 0.00 73 1017.1
20260507015039 62 219 11.0 17.0 0.00 0.00 0.00 72 1017.1
20260507014026 63 214 11.0 15.0 0.00 0.00 0.00 70 1017.1
20260507013019 64 233 10.0 13.0 0.00 0.00 0.00 70 1017.1
20260507012023 64 222 12.0 18.0 0.00 0.00 0.00 70 1017.1
20260507011031 65 229 11.0 13.0 0.00 0.00 0.00 69 1017.1
20260507010019 65 225 13.0 17.0 0.00 0.00 0.00 68 1017.1
20260507005026 66 224 10.0 14.0 0.00 0.00 0.00 68 1017.2
20260507004030 66 238 11.0 15.0 0.00 0.00 0.00 67 1017.2
20260507003023 67 243 10.0 13.0 0.00 0.00 0.00 65 1017.2
20260507002031 67 238 12.0 15.0 0.00 0.00 0.00 65 1017.2
20260507001020 68 235 12.0 15.0 0.00 0.00 0.00 64 1016.4
20260507000028 69 233 9.0 13.0 0.00 0.00 0.00 62 1016.2
20260506235036 69 223 10.0 13.0 0.00 0.00 0.00 63 1017.2
20260506234025 69 254 8.0 12.0 0.00 0.00 0.00 62 1016.4
20260506233021 70 239 9.0 13.0 0.00 0.00 0.00 62 1016.2
20260506232022 71 234 10.0 13.0 0.00 0.00 0.00 62 1016.2
20260506231030 71 242 9.0 12.0 0.00 0.00 0.00 62 1016.2
20260506230039 72 225 11.0 13.0 0.00 0.00 0.00 61 1016.2
20260506225027 72 225 6.0 11.0 0.00 0.00 0.00 62 1017.2
20260506224055 72 235 7.0 8.0 0.00 0.00 0.00 61 1017.2
20260506223024 73 235 6.0 8.0 0.00 0.00 0.00 58 1017.2
20260506222034 73 208 4.0 6.0 0.00 0.00 0.00 57 1017.2
20260506221021 73 189 6.0 8.0 0.00 0.00 0.00 58 1017.2
20260506220049 73 218 3.0 6.0 0.00 0.00 0.00 57 1017.2
20260506215036 72 252 4.0 7.0 0.00 0.00 0.00 58 1017.2
20260506214025 73 222 5.0 8.0 0.00 0.00 0.00 57 1017.2
20260506213043 72 175 6.0 8.0 0.00 0.00 0.00 58 1017.2
20260506212023 72 230 5.0 7.0 0.00 0.00 0.00 60 1017.2
20260506211031 70 181 5.0 7.0 0.00 0.00 0.00 63 1017.2
20260506210020 70 213 6.0 8.0 0.00 0.00 0.00 62 1017.2
20260506205028 70 159 5.0 7.0 0.00 0.00 0.00 63 1017.2
20260506204036 70 195 3.0 6.0 0.00 0.00 0.00 64 1017.2
20260506203025 69 191 4.0 6.0 0.00 0.00 0.00 66 1017.2
20260506202055 69 177 4.0 7.0 0.00 0.00 0.00 66 1018.2
20260506201022 67 196 5.0 9.0 0.00 0.00 0.00 70 1018.2
20260506200030 67 196 5.0 8.0 0.00 0.00 0.00 71 1018.2
20260506195040 67 172 4.0 8.0 0.00 0.00 0.00 71 1018.2
20260506194027 67 176 5.0 7.0 0.00 0.00 0.00 70 1018.2
20260506193025 67 148 6.0 9.0 0.00 0.00 0.00 69 1018.2
20260506192026 67 122 6.0 8.0 0.00 0.00 0.00 70 1018.2
20260506191054 66 146 4.0 7.0 0.00 0.00 0.00 73 1018.2
20260506190022 64 116 5.0 7.0 0.00 0.00 0.00 75 1018.2
20260506185029 63 170 5.0 8.0 0.00 0.00 0.00 76 1018.2
20260506184018 62 187 6.0 7.0 0.00 0.00 0.00 78 1018.1
20260506183027 62 165 5.0 8.0 0.00 0.00 0.00 78 1018.1
20260506182055 62 173 4.0 7.0 0.00 0.00 0.00 79 1018.1
20260506181046 62 173 5.0 9.0 0.00 0.00 0.00 78 1018.1
20260506180034 60 95 5.0 7.0 0.00 0.00 0.00 81 1018.1
20260506175021 60 165 3.0 5.0 0.00 0.00 0.00 82 1018.1
20260506174049 59 157 4.0 7.0 0.00 0.00 0.00 84 1018.1
20260506173028 58 171 3.0 5.0 0.00 0.00 0.00 85 1018.1
20260506172026 58 191 6.0 8.0 0.00 0.00 0.00 84 1018.1
20260506171035 58 162 3.0 4.0 0.00 0.00 0.00 85 1018.1
20260506170046 58 203 4.0 5.0 0.00 0.00 0.00 86 1018.1
20260506165031 57 162 3.0 5.0 0.00 0.00 0.00 87 1018.1
20260506164101 57 198 5.0 8.0 0.00 0.00 0.00 87 1018.1
20260506163109 56 172 3.0 6.0 0.00 0.00 0.00 89 1018.1
20260506162036 56 189 5.0 7.0 0.00 0.00 0.00 87 1018.1
20260506161026 57 134 3.0 8.0 0.00 0.00 0.00 87 1017.2
20260506160035 57 98 4.0 7.0 0.00 0.00 0.00 86 1017.2
20260506155023 56 175 2.0 4.0 0.00 0.00 0.00 88 1018.1
20260506154031 55 211 4.0 6.0 0.00 0.00 0.00 89 1018.1
20260506153020 54 199 5.0 7.0 0.00 0.00 0.00 90 1018.1
20260506152100 54 229 6.0 9.0 0.00 0.00 0.00 90 1018.1
20260506151036 55 244 5.0 7.0 0.00 0.00 0.00 90 1018.1
20260506150027 55 222 6.0 8.0 0.00 0.00 0.00 89 1018.1
20260506145034 55 208 6.0 9.0 0.00 0.00 0.00 88 1017.1
20260506144022 56 177 6.0 7.0 0.00 0.00 0.00 88 1017.1
20260506143030 56 187 4.0 6.0 0.00 0.00 0.00 87 1017.1
20260506142020 55 182 4.0 5.0 0.00 0.00 0.00 90 1016.1
20260506141027 54 158 5.0 6.0 0.00 0.00 0.00 91 1016.9
20260506140035 54 157 6.0 8.0 0.00 0.00 0.00 91 1017.1
20260506135027 54 159 4.0 5.0 0.00 0.00 0.00 90 1017.1
20260506134033 54 146 5.0 6.0 0.00 0.00 0.00 90 1016.4
20260506133022 54 149 3.0 5.0 0.00 0.00 0.00 92 1016.2
20260506132021 54 113 3.0 5.0 0.00 0.00 0.00 92 1016.2
20260506131019 54 112 3.0 4.0 0.00 0.00 0.00 91 1016.2
20260506130047 54 126 3.0 4.0 0.00 0.00 0.00 89 1016.1
20260506125035 54 183 7.0 11.0 0.00 0.00 0.00 89 1016.1
20260506124024 54 200 5.0 9.0 0.00 0.00 0.00 89 1016.1
20260506123032 54 187 5.0 7.0 0.00 0.00 0.00 90 1016.1
20260506122023 54 198 6.0 8.0 0.00 0.00 0.00 90 1016.1
20260506121049 54 200 7.0 10.0 0.00 0.00 0.00 90 1016.1
20260506120037 54 205 7.0 9.0 0.00 0.00 0.00 91 1016.1
20260506115026 53 220 6.0 11.0 0.00 0.00 0.00 91 1016.1
20260506114034 53 228 7.0 9.0 0.00 0.00 0.00 91 1015.4
20260506113024 53 217 7.0 9.0 0.00 0.00 0.00 92 1015.2
20260506112023 53 201 8.0 11.0 0.00 0.00 0.00 92 1015.2
20260506111020 53 216 7.0 11.0 0.00 0.00 0.00 92 1015.1
20260506110028 53 207 9.0 15.0 0.00 0.00 0.00 93 1015.1
20260506105036 53 209 8.0 10.0 0.00 0.00 0.00 93 1015.1
20260506104045 53 196 5.0 7.0 0.00 0.00 0.00 94 1015.1
20260506103034 52 208 7.0 11.0 0.00 0.00 0.00 94 1015.1
20260506102026 52 206 5.0 7.0 0.00 0.00 0.00 94 1014.1
20260506101030 52 210 5.0 7.0 0.00 0.00 0.00 93 1014.1
20260506100040 52 193 5.0 6.0 0.00 0.00 0.00 93 1014.1
20260506095047 53 204 4.0 5.0 0.00 0.00 0.00 93 1014.1
20260506094036 53 207 4.0 5.0 0.00 0.00 0.00 93 1014.1
20260506093024 53 203 4.0 7.0 0.00 0.00 0.00 92 1014.1
20260506092027 53 212 4.0 6.0 0.00 0.00 0.00 92 1014.1
20260506091022 53 218 3.0 4.0 0.00 0.00 0.00 92 1014.1